Regional Weather Roundup
Issued by NWS

Home | Current Version | Previous Version | Graphics & Text | Print | Product List | Glossary On
Versions: 1 2 3 4 5 6 7 8 9 10 11 12 13 14 15 16 17 18 19 20 21 22 23 24 25 26 27 28 29 30 31 32 33 34 35 36 37 38 39 40 41 42 43 44 45 46 47 48 49 50
000
ASUS43 KMKX 072359
RWRWI

WISCONSIN REGIONAL WEATHER ROUNDUP
NATIONAL WEATHER SERVICE MILWAUKEE/SULLIVAN WI
600 PM CST SUN FEB 07 2016

NOTE: "FAIR" INDICATES FEW OR NO CLOUDS BELOW 12,000 FEET WITH NO
SIGNIFICANT WEATHER AND/OR OBSTRUCTIONS TO VISIBILITY.

WIZ001-002-006>008-014>016-023>028-080100-
NORTHWEST WISCONSIN

CITY           SKY/WX    TMP DP  RH WIND       PRES   REMARKS
SUPERIOR ARPT  CLOUDY    32  27  81 NW12      29.57R WCI  23
ASHLAND        CLOUDY    34  33  96 W8        29.53R WCI  27
6HR MIN TEMP:  34; 6HR MAX TEMP:  37;

HAYWARD        LGT SNOW  32  30  92 VRB6      29.54R FOG     WCI  26
6HR MIN TEMP:  32; 6HR MAX TEMP:  36; 6HR PCP:  0.05;

SIREN          LGT SNOW  30  28  94 NW14G21   29.60R VSB 1   WCI  19
CUMBERLAND     LGT SNOW  32  32 100 W18       29.57R WCI  20
RICE LAKE      MIX PCPN  34  31  88 SW9       29.59R WCI  27
CHETEK         LGT RAIN  35  31  83 W5        29.58S WCI  31
LADYSMITH      CLOUDY    36  31  82 W10       29.58R WCI  28
EAU CLAIRE     CLOUDY    37  27  67 W9        29.60R WCI  30
6HR MIN TEMP:  37; 6HR MAX TEMP:  40;

MENOMONIE      CLOUDY    38  28  68 SW8       29.61R WCI  32
NEW RICHMOND   LGT SNOW  33  30  89 W13G29    29.62R WCI  24
OSCEOLA        LGT SNOW  32  30  91 W18G28    29.66R WCI  21
$$

WIZ003>005-009-010-017-018-080100-
NORTH CENTRAL WISCONSIN

CITY           SKY/WX    TMP DP  RH WIND       PRES   REMARKS
MANITOWISH WTR LGT SNOW  32  32 100 SW7       29.51R WCI  26
ARBOR VITAE    LGT SNOW  34  32  90 W7        29.52R WCI  28
WOODRUFF       LGT SNOW  34  32  90 W7        29.52R WCI  28
RHINELANDER    CLOUDY    34  28  79 SW8       29.54R WCI  27
6HR MIN TEMP:  32; 6HR MAX TEMP:  35; 6HR PCP: TRACE;

EAGLE RIVER    LGT SNOW  33  32  98 SW5       29.51S WCI  28
LAND O LAKES   FLURRIES  33  32  97 SW5       29.52R WCI  29
PHILLIPS       CLOUDY    33  30  90 SW6       29.53R WCI  27
TOMAHAWK       CLOUDY    34  28  79 SW3       29.55S
MEDFORD        CLOUDY    35  27  75 SW10G16   29.56R WCI  27
MERRILL        CLOUDY    36  28  73 SW9       29.57R WCI  29
$$

WIZ029-030-035-036-043>047-080100-
CENTRAL WISCONSIN

CITY           SKY/WX    TMP DP  RH WIND       PRES   REMARKS
WAUSAU         CLOUDY    38  26  62 W13       29.56S WCI  30
6HR MIN TEMP:  36; 6HR MAX TEMP:  39;

MOSINEE        CLOUDY    36  28  75 W9G17     29.59S WCI  29
MARSHFIELD     CLOUDY    37  24  59 W12       29.58S WCI  29
6HR MIN TEMP:  37; 6HR MAX TEMP:  40;

STEVENS POINT  CLOUDY    36  25  64 SW12G17   29.60R WCI  28
WAUPACA        CLOUDY    40  28  61 SW9       29.61S WCI  35
WAUTOMA        NOT AVBL
WISC RAPIDS    CLOUDY    38  23  55 W14       29.63R WCI  30
6HR MIN TEMP:  38; 6HR MAX TEMP:  41;

CAMP DOUGLAS   NOT AVBL
$$

WIZ011>013-019>022-031-037>040-048>050-080100-
NORTHEAST WISCONSIN

CITY           SKY/WX    TMP DP  RH WIND       PRES   REMARKS
ANTIGO         CLOUDY    34  28  79 W9        29.56S WCI  27
SHAWANO        CLOUDY    40  29  65 CALM      29.60R
OCONTO         CLOUDY    38  30  74 S3        29.60S
STURGEON BAY   CLOUDY    36  28  75 SW7       29.63S WCI  30
6HR MIN TEMP:  36; 6HR MAX TEMP:  39;

GREEN BAY      CLOUDY    37  30  75 S6        29.61S WCI  32
6HR MIN TEMP:  36; 6HR MAX TEMP:  40;

MANITOWOC      NOT AVBL
APPLETON       MOCLDY    37  27  65 SW8       29.60R WCI  31
CLINTONVILLE   CLOUDY    37  28  70 S3        29.60S
OSHKOSH        PTCLDY    37  28  70 SW8       29.63R WCI  31
6HR MIN TEMP:  37; 6HR MAX TEMP:  41;

$$

WIZ032>034-041-042-053>061-080100-
SOUTHWEST WISCONSIN

CITY           SKY/WX    TMP DP  RH WIND       PRES   REMARKS
LA CROSSE      CLOUDY    38  27  64 W13       29.67R WCI  30
6HR MIN TEMP:  38; 6HR MAX TEMP:  41;

SPARTA         CLOUDY    38  27  66 W5        29.66S WCI  34
VIROQUA        CLOUDY    35  28  75 W16       29.66S WCI  25
BOSCOBEL       PTCLDY    39  28  64 SW8       29.72R WCI  33
6HR MIN TEMP:  39; 6HR MAX TEMP:  43;

PRAIRIE DU CHI PTCLDY    37  27  66 W9G17     29.72F WCI  31
PLATTEVILLE    MOCLDY    36  30  79 SW13      29.73R WCI  27
$$

WIZ056-057-062-063-064-067-068-080100-
SOUTH CENTRAL WISCONSIN

CITY           SKY/WX    TMP DP  RH WIND       PRES   REMARKS
REEDSBURG      PTCLDY    36  27  68 SW10G16   29.67R WCI  29
BARABOO/DELLS  PTCLDY    37  25  62 SW9       29.65S WCI  30
LONE ROCK      NOT AVBL
MINERAL POINT  MOCLDY    37  28  70 W8        29.70S WCI  31
MADISON        MOCLDY    36  26  67 SW8       29.68R WCI  30
6HR MIN TEMP:  36; 6HR MAX TEMP:  41;

MIDDLETON      CLEAR     39  26  60 W17       29.68S WCI  30
WATERTOWN      CLEAR     36  28  73 SW10      29.67S WCI  28
MONROE         CLEAR     36  28  75 SW18      29.71S WCI  25
JANESVILLE     CLEAR     37  27  65 W12       29.72R WCI  30
$$

WIZ051-052-058>065-066-070>072-080100-
SOUTHEAST WISCONSIN

CITY           SKY/WX    TMP DP  RH WIND       PRES   REMARKS
MILWAUKEE      PTCLDY    39  28  64 SW10      29.69R WCI  32
6HR MIN TEMP:  39; 6HR MAX TEMP:  45;

WAUKESHA       CLEAR     36  27  69 SW12      29.69R WCI  27
MILWAUKEE/TIMM CLEAR     37  27  65 SW10      29.69R WCI  30
RACINE         CLEAR     39  28  64 W8        29.71R WCI  33
6HR MIN TEMP:  39; 6HR MAX TEMP:  44;

BURLINGTON     CLEAR     36  27  69 W9G16     29.71R WCI  29
KENOSHA        CLEAR     38  29  70 W14       29.70R WCI  30
6HR MIN TEMP:  38; 6HR MAX TEMP:  43;

FOND DU LAC    CLEAR     38  29  70 SW9       29.64S WCI  31
6HR MIN TEMP:  37; 6HR MAX TEMP:  41;

SHEBOYGAN      PTCLDY    37  29  72 SW12      29.65R WCI  29
6HR MIN TEMP:  37; 6HR MAX TEMP:  41;

WEST BEND      CLEAR     36  28  75 SW6       29.66S WCI  31
JUNEAU         CLEAR     36  28  74 SW10      29.67S WCI  28
$$

LSZ147-162-080100-
LAKE SUPERIOR

STATION/POSITION TIME  TEMP    WIND        PRES    WAVE
                       AIR SEA DIR/SP/G            HT/PER
                 (UTC) (F)     (DEG/KT/KT) (MB)    (FT/S)
DEVILS ISLAND    2300   34     240/ 18/ 21  999.2R
PORT WING        2300   34     240/ 10/ 15 1000.0R
SAXON HARBOR     2340   35                  999.7R
$$

LMZ867-665-643>646-080100-
LAKE MICHIGAN

STATION/POSITION TIME  TEMP    WIND        PRES    WAVE
                       AIR SEA DIR/SP/G            HT/PER
                 (UTC) (F)     (DEG/KT/KT) (MB)    (FT/S)
CHAMBERS ISLAND  2300   37     180/  4/  8 1002.7R
NORTHPORT PIER   2300   39     210/  4/  7 1002.4R
KEWAUNEE LAKESHO 2300   38     220/  5/  8 1002.7R
SHEBOYGAN LAKESH 2300   41     230/  9/ 11 1004.8R
PORT WASHINGTON  2340   40     240/  5/  8 1005.8R
MILWAUKEE LAKESH 2310   42     260/ 14/ 18   N/A
KENOSHA   LAKESH 2300   43     240/ 10/ 15 1005.8R
$$

TC  - TEMPERATURE IN CELSIUS
VSB - VISIBILITY IN STATUTE MILES
WCI - WIND CHILL INDEX
HX  - HEAT INDEX




USA.gov is the U.S. government's official web portal to all federal, state and local government web resources and services.